Location: Newark
(22.3060°N, 114.2134°E)
Time: 18:49:30
(UTC+00:00)

Vanguard 2 - Pass Details

Date: 08 August 2021
Orbit: 553 x 2937 km, 32.9° (Epoch: 27 September)

Event Time Altitude Azimuth Distance (km) Brightness Sun altitude
Rises 02:29:35 0° 272° (W) 3,668 10.7 61.2°
Reaches altitude 10° 02:32:26 10° 257° (WSW) 3,011 10.4 61.9°
Maximum altitude 02:38:14 23° 207° (SSW) 2,719 10.5 63.2°
Drops below altitude 10° 02:46:29 10° 161° (SSE) 4,413 11.7 65.1°
Sets 02:51:53 0° 149° (SSE) 5,863 12.2 66.3°
